Location: Burzi?i
(45.0869°N, 16.0577°E)
Time: 12:10:44
(UTC+00:00)

Helios 1A Rocket - Pass Details

Date: 29 October 2020
Orbit: 562 x 587 km, 98.3° (Epoch: 27 November)

Event Time Altitude Azimuth Distance (km) Brightness Sun altitude
Rises 17:11:58 0° 162° (SSE) 2,793 6.3 -15.4°
Reaches altitude 10° 17:14:07 10° 161° (SSE) 1,895 5.4 -15.8°
Maximum altitude 17:18:13 80° 75° (ENE) 595 2.8 -16.5°
Drops below altitude 10° 17:22:20 10° 349° (NNW) 1,897 5.7 -17.2°
Sets 17:24:29 0° 348° (NNW) 2,796 6.6 -17.6°
